ECMWFNIL_925_spd_312.txt.gz
Wind_Speed
13 13 13 13 13 14 13 13 13 12 13 13 13 13 12 12 11 10 9 8 8 8 8 8 10 10 10 10 10 11 10 9 10 10 10 10 12 13 13 14 14 15
14 13 12 12 12 13 12 11 11 11 12 12 12 12 12 12 11 11 11 10 9 9 8 8 9 9 9 8 8 9 10 10 10 10 10 10 11 11 12 12 13 14
15 14 14 13 12 12 12 11 11 11 11 12 12 12 13 13 12 11 11 11 9 9 9 9 9 9 10 9 8 8 9 9 10 11 11 11 11 11 11 11 12 13
15 14 14 13 12 12 12 12 12 12 12 12 13 13 13 12 12 12 11 11 11 10 9 9 8 8 9 9 9 9 9 9 9 10 11 11 11 11 11 11 12 12
14 14 14 13 12 12 12 12 13 13 13 13 12 12 12 12 12 12 12 12 12 11 10 8 8 8 8 8 7 8 9 9 9 9 9 10 10 10 11 12 12 12
13 13 13 13 12 12 12 12 12 12 12 12 11 11 11 11 11 11 11 11 11 11 10 9 8 8 8 7 6 6 8 8 8 7 6 7 8 9 9 10 11 11
12 12 12 12 12 12 12 12 12 12 11 11 11 11 11 11 11 11 11 11 10 10 10 10 9 8 8 7 6 6 7 8 8 8 7 6 7 8 8 9 9 10
11 11 11 11 11 12 12 12 12 11 11 11 10 11 11 10 10 10 10 10 10 10 10 10 10 10 9 8 7 7 7 7 8 8 8 8 8 8 8 8 8 8
10 11 11 11 11 11 11 11 11 11 11 11 11 10 10 10 10 10 9 9 9 9 10 9 10 10 9 8 8 7 7 7 7 7 7 8 8 8 9 9 9 9
10 11 10 11 11 11 11 11 11 11 11 11 10 10 10 10 10 10 10 9 9 9 9 9 9 9 8 8 7 7 6 6 6 6 5 6 6 7 8 9 11 11
10 10 10 11 11 10 11 11 11 11 11 11 10 10 11 10 10 10 10 10 10 10 9 9 9 9 8 8 7 6 6 6 6 6 5 5 5 6 6 7 8 9
10 10 10 10 10 11 11 11 11 11 11 11 11 11 11 11 11 11 10 10 10 10 10 9 9 8 8 8 7 6 5 6 7 7 7 6 6 6 6 6 6 7
10 10 10 10 11 11 11 11 11 11 11 11 11 11 11 11 12 12 11 11 10 10 10 10 9 9 8 7 6 5 5 6 7 8 8 7 6 6 6 6 7 7
10 10 11 11 11 11 12 12 12 12 12 11 11 11 11 11 12 12 12 12 11 10 10 10 10 9 9 7 6 6 5 7 8 9 10 10 9 8 9 9 9 9
10 11 11 12 12 13 13 13 12 12 12 12 12 12 11 11 11 11 12 12 12 11 10 10 10 10 10 9 8 7 7 8 9 9 10 11 11 11 11 11 11 10
12 12 12 12 13 13 14 14 14 13 13 13 13 12 12 12 12 11 11 12 12 12 11 10 10 10 11 10 9 8 8 9 10 10 10 11 12 13 12 11 10 10
13 13 13 13 14 14 15 14 14 14 14 14 13 13 13 13 12 12 11 11 12 13 13 12 11 11 11 12 10 9 10 10 11 12 12 12 13 13 13 13 12 12
14 14 14 15 15 15 15 15 15 15 15 14 14 14 14 14 14 14 13 12 13 14 15 15 14 13 13 13 12 11 11 11 11 12 13 13 14 14 14 13 14 14
15 15 15 16 16 15 15 15 15 16 15 16 15 15 15 15 15 14 14 13 14 15 17 16 15 15 14 13 13 12 11 11 12 13 13 13 14 15 15 15 16 16
15 15 16 16 16 15 15 15 15 16 16 16 16 16 16 16 15 15 15 15 14 16 17 17 16 16 15 15 14 12 12 12 13 14 15 15 16 17 18 19 18 18
15 16 16 16 15 14 15 15 16 17 18 18 18 17 17 16 16 17 16 16 15 16 18 19 18 16 16 16 15 13 12 12 14 15 16 16 17 18 19 20 20 19
14 14 14 15 15 15 16 17 17 18 18 19 18 18 18 18 18 17 17 17 17 17 19 20 20 18 17 17 16 15 13 13 14 15 15 16 16 17 18 19 19 19
12 13 14 15 15 16 17 17 18 18 18 17 18 18 19 19 19 18 18 18 18 19 20 22 22 20 18 18 18 16 14 14 15 15 15 16 17 17 18 19 19 19
13 14 15 16 17 17 18 18 19 19 19 18 18 19 20 21 21 21 21 21 21 21 21 22 23 22 20 20 20 18 16 16 16 16 17 17 17 17 18 18 19 18
14 15 16 17 18 18 19 20 20 21 21 21 21 21 22 22 22 22 23 23 22 22 21 22 23 24 24 24 23 20 18 17 17 17 18 18 17 17 17 17 17 17
16 17 18 20 21 22 23 23 23 23 23 23 23 23 24 24 23 23 23 23 22 22 22 23 25 27 28 27 26 23 20 18 18 19 19 19 18 17 17 17 18 18

ECMWFNIL_925_spd_318.txt.gz
Wind_Speed
14 13 12 11 11 10 9 8 8 8 8 8 8 8 9 9 9 9 10 10 10 10 10 10 11 11 11 11 11 11 11 10 10 10 10 10 10 10 10 10 10 10
14 13 12 11 11 10 9 8 8 7 8 8 8 8 7 8 8 9 9 10 10 10 11 11 11 11 11 10 10 11 10 11 10 10 11 10 10 10 10 10 11 10
14 13 12 11 11 10 9 8 7 7 7 7 7 7 7 8 8 9 9 10 10 11 11 11 11 11 11 11 10 10 10 10 10 10 10 9 9 9 10 10 11 11
13 12 11 11 10 9 8 7 7 7 6 7 7 7 8 8 9 9 10 10 10 11 11 11 12 11 11 11 10 10 9 9 10 10 10 9 9 9 9 9 10 10
12 11 9 9 8 7 6 6 6 7 7 7 7 8 8 9 9 10 10 11 11 11 11 11 11 11 11 11 11 11 11 10 10 10 10 9 10 10 10 10 10 9
10 9 8 7 7 6 6 6 7 7 7 7 8 8 9 9 10 11 11 11 12 12 12 12 12 12 12 12 11 11 11 11 11 11 11 10 10 10 11 11 11 10
8 7 7 7 6 6 6 6 7 7 7 8 8 9 9 10 10 11 11 11 12 12 12 12 12 12 12 12 12 11 11 11 12 12 11 11 11 11 11 11 12 12
7 7 6 6 5 5 6 6 7 8 8 8 9 9 9 10 10 10 11 11 11 11 11 11 11 11 11 11 11 11 11 11 12 12 12 12 13 13 13 13 12 12
6 6 6 5 5 5 6 7 7 8 8 8 9 9 9 10 10 10 11 11 11 11 11 11 11 11 11 11 11 11 12 12 11 11 11 12 12 13 14 14 14 14
5 5 5 4 5 5 6 7 7 7 8 8 9 9 10 10 11 11 11 12 12 12 12 12 12 12 11 11 11 11 11 12 12 12 11 11 12 12 13 14 14 14
4 4 4 4 4 5 6 6 7 7 8 9 9 10 10 11 12 12 12 13 13 13 13 13 13 13 13 12 11 11 11 11 12 12 12 12 12 12 12 13 13 14
3 3 3 3 4 5 6 6 7 7 8 9 10 10 11 11 11 12 12 13 14 14 14 14 13 13 14 13 12 12 12 12 12 13 14 14 13 13 13 13 13 14
2 3 3 4 5 5 6 7 7 8 9 9 10 11 11 11 12 12 12 13 14 14 14 15 15 14 14 14 14 14 13 13 13 14 15 15 15 15 14 14 14 14
2 3 4 5 6 6 7 8 8 9 10 10 11 11 12 13 13 14 14 14 14 14 14 15 15 15 15 15 15 15 15 14 15 15 16 16 16 16 16 15 15 15
3 4 5 5 6 7 7 8 9 10 11 11 12 12 13 14 15 16 16 16 16 15 15 15 16 16 16 15 16 17 16 16 16 17 18 18 18 18 18 17 16 16
4 5 6 6 7 8 8 9 10 12 13 13 14 15 16 16 17 17 18 17 17 17 16 16 16 16 17 17 17 17 17 17 18 18 19 19 19 20 20 19 18 17
5 5 7 7 8 9 10 11 12 13 15 16 17 17 18 18 19 19 19 19 19 18 17 17 17 17 18 18 18 17 16 17 18 19 19 20 20 21 21 21 21 19
5 7 8 9 10 10 12 12 14 15 17 18 19 19 20 20 21 21 21 21 20 20 20 19 19 19 18 19 19 17 17 18 19 19 20 20 21 21 21 21 22 21
7 9 10 11 11 12 13 14 15 17 18 19 20 21 21 22 23 23 23 23 23 23 23 22 22 21 21 20 20 19 18 18 20 20 20 20 21 21 22 22 23 24
9 10 11 12 12 13 13 14 15 17 19 20 21 22 23 24 25 26 26 26 26 26 26 26 25 24 23 22 22 21 20 20 21 21 21 21 21 22 23 24 25 25
9 10 10 11 11 12 13 14 16 18 19 20 21 22 24 25 26 27 28 28 28 28 29 30 28 27 26 25 23 22 21 22 23 23 23 23 23 23 24 25 26 26
7 7 8 10 11 13 14 16 18 19 21 22 23 25 26 27 28 29 29 30 30 29 30 31 30 28 27 27 25 23 23 24 25 26 26 26 25 25 25 26 26 26
6 8 9 11 13 15 17 19 20 22 23 24 26 28 28 29 29 30 29 29 30 29 29 31 31 30 29 29 27 24 24 25 27 28 28 28 27 27 26 27 27 27
8 10 12 14 16 18 20 21 23 24 25 26 26 27 28 28 27 28 28 27 27 27 27 29 31 31 29 29 28 26 24 26 27 29 29 29 28 28 28 28 28 28
11 13 14 16 18 19 21 22 24 25 25 26 25 25 27 27 26 26 27 26 25 25 25 26 29 30 29 29 29 28 26 26 27 28 28 28 28 29 30 29 29 27
13 15 16 17 19 20 21 21 22 23 24 24 24 24 24 25 24 23 24 25 23 23 24 25 27 29 29 28 28 27 25 25 26 27 27 28 28 28 29 29 28 27

ECMWFNIL_925_spd_324.txt.gz
Wind_Speed
23 22 21 20 19 17 16 15 14 14 14 15 15 16 15 15 13 12 12 12 11 11 11 11 11 11 11 11 11 11 11 11 11 11 11 11 11 10 9 9 9 9
23 21 20 19 19 17 16 15 14 14 14 14 15 15 14 13 12 11 11 11 10 10 10 10 10 10 10 10 10 10 10 10 10 10 10 10 9 8 8 7 7 8
22 21 20 19 18 17 16 15 14 13 13 14 13 13 12 12 11 11 11 10 10 10 9 9 9 9 9 9 9 9 9 9 9 9 9 9 8 8 7 6 6 7
22 21 19 18 17 16 15 14 13 13 13 13 13 12 11 11 11 11 10 10 9 9 9 9 9 9 9 9 9 9 9 9 9 8 8 7 7 7 7 7 6 7
21 20 18 18 16 15 14 13 13 13 12 13 13 12 11 10 10 10 10 9 9 9 8 8 9 9 9 9 9 9 8 8 8 8 8 7 7 7 7 8 7 7
21 19 18 17 16 15 14 14 14 13 13 13 12 11 10 10 10 10 9 9 8 8 8 8 8 8 8 8 8 8 9 8 8 8 8 8 7 8 8 9 9 9
21 19 18 17 16 16 15 15 14 13 12 12 11 10 9 9 9 9 9 8 8 7 7 7 7 8 8 8 8 8 8 8 9 8 8 8 9 9 9 10 11 11
21 20 19 18 17 16 15 15 13 12 11 10 10 9 8 8 9 9 8 7 7 7 7 7 7 7 7 8 8 8 8 8 9 9 10 10 10 11 11 11 12 12
21 20 19 17 17 16 14 13 12 11 10 8 8 8 7 8 8 7 7 6 6 6 6 6 6 7 7 8 8 8 8 9 9 10 11 11 12 12 12 12 12 13
20 19 17 16 15 14 13 12 11 10 9 8 7 7 6 7 7 7 6 5 5 5 6 6 6 7 7 8 8 9 9 9 10 10 11 12 13 13 13 13 14 14
19 17 16 15 14 13 12 11 10 9 8 7 6 6 6 6 6 6 6 5 6 6 6 7 7 8 8 8 8 9 10 11 11 11 12 12 13 14 14 13 13 14
18 17 15 14 13 12 11 10 9 9 8 7 6 5 6 6 6 6 6 6 7 7 7 8 8 8 9 9 9 10 11 11 12 12 12 13 14 15 15 14 14 13
17 16 15 14 13 12 11 10 9 9 8 7 6 5 5 5 6 7 7 7 8 8 8 8 8 8 9 9 10 11 11 12 12 12 13 14 15 16 16 16 16 15
17 16 15 14 13 12 11 10 9 8 7 6 6 4 4 5 6 7 8 8 8 9 9 9 9 9 9 10 10 11 12 12 13 13 15 15 15 16 17 17 18 17
17 16 15 14 13 12 11 9 8 7 6 5 4 3 4 5 6 7 8 8 9 9 10 10 11 11 10 11 12 12 12 13 14 15 15 16 16 16 17 18 18 18
16 15 14 13 12 11 9 7 6 5 4 3 2 2 4 5 7 8 9 9 9 10 10 11 12 12 12 13 14 13 13 14 15 16 16 16 17 18 18 18 17 17
16 15 14 12 11 9 7 6 5 4 2 1 1 3 4 6 7 8 9 10 11 11 12 13 13 14 14 15 14 13 14 15 16 17 18 18 18 19 18 18 17 17
15 14 13 11 9 7 6 5 4 3 1 1 3 4 6 7 9 10 10 11 12 13 14 15 16 16 16 17 16 14 14 15 16 17 19 19 19 18 18 18 19 19
14 13 11 9 8 7 6 5 3 1 1 3 5 6 8 9 10 11 12 13 14 16 17 18 19 19 19 19 18 16 14 15 16 17 19 19 19 19 20 20 20 21
13 11 10 10 9 7 6 3 2 2 4 6 8 9 10 12 13 14 15 15 16 18 19 20 20 21 21 20 19 17 15 15 16 18 19 20 20 20 21 22 22 22
12 11 11 10 8 6 3 2 3 4 6 8 9 11 12 14 15 15 16 17 18 19 20 21 21 21 21 21 19 17 15 15 17 18 19 19 20 20 21 22 22 22
12 12 10 8 6 3 2 3 5 6 8 9 11 12 13 14 15 16 17 19 19 20 22 22 22 21 20 20 18 16 15 16 17 17 18 19 20 20 20 20 20 20
12 10 8 6 4 3 3 5 6 7 9 11 12 14 15 16 17 17 18 20 21 21 22 23 23 21 19 18 17 15 15 16 17 18 19 20 20 20 19 19 18 17
10 8 5 4 2 3 4 6 7 8 10 12 13 15 15 16 18 19 19 20 21 21 21 22 22 20 18 17 16 15 15 16 17 19 20 21 21 21 20 19 18 16
8 6 4 2 3 4 5 7 8 9 11 12 13 15 16 17 18 20 21 21 21 21 21 21 22 20 18 17 17 16 15 16 17 18 21 22 21 22 22 20 18 17
6 4 2 3 4 5 6 7 9 10 11 13 14 15 16 18 19 20 22 22 22 22 21 20 21 20 18 17 17 16 15 15 16 18 20 22 22 22 22 21 20 18

ECMWFNIL_925_spd_330.txt.gz
Wind_Speed
32 32 31 31 28 26 26 26 25 24 23 22 22 21 20 19 17 16 15 14 13 13 12 11 11 11 11 10 10 11 11 12 12 10 9 9 9 8 8 8 6 5
32 32 32 31 29 28 27 26 26 26 25 24 23 22 20 19 17 16 15 14 13 13 12 12 11 10 10 9 9 10 10 10 10 10 9 9 8 7 7 7 6 5
31 32 32 31 31 29 28 27 27 26 25 24 23 22 20 19 17 16 15 15 14 14 13 12 11 10 10 9 8 8 9 9 9 8 7 7 7 6 6 5 4 4
29 30 31 31 30 29 28 27 27 26 25 24 23 21 20 18 17 16 16 15 15 14 13 12 11 10 9 8 8 7 8 7 8 7 6 6 5 5 4 4 3 3
26 28 29 29 29 28 28 27 27 26 25 24 23 21 19 18 17 16 15 15 14 13 12 11 10 10 9 8 7 7 7 6 6 6 5 4 4 4 3 3 3 3
26 27 28 28 28 28 27 27 27 26 25 24 22 20 18 17 16 15 14 14 13 12 11 10 9 9 8 7 7 6 6 5 5 4 4 4 3 3 3 3 3 3
28 28 28 28 28 27 27 27 26 25 24 23 21 19 17 16 15 14 13 12 11 11 10 9 8 7 7 6 5 5 4 4 4 3 4 3 4 4 4 4 4 5
30 29 29 28 28 27 26 26 25 25 24 22 21 19 16 15 14 13 12 11 10 9 8 8 7 6 5 5 4 4 4 3 3 3 4 4 4 5 5 6 6 6
31 30 30 29 28 27 26 26 25 24 23 21 20 18 16 14 13 11 11 9 8 8 7 6 6 5 4 4 4 3 3 3 3 4 4 4 5 6 6 7 7 7
32 31 30 29 28 27 26 26 24 23 21 20 19 17 15 13 12 10 9 8 7 6 6 5 4 4 3 3 3 3 3 3 4 4 5 5 6 7 7 8 8 9
32 31 30 30 29 28 26 25 24 22 20 19 18 16 14 12 11 9 8 7 6 5 5 4 3 3 2 2 3 3 3 4 4 5 6 6 7 7 8 9 9 10
32 31 30 29 28 27 26 24 23 22 20 18 16 14 13 11 9 8 7 6 5 4 3 3 2 2 2 2 3 3 3 4 5 5 6 7 7 8 9 9 10 10
32 31 30 29 28 26 25 24 23 21 19 17 15 13 12 10 9 7 6 5 4 3 2 2 1 1 1 2 2 3 4 5 5 6 7 7 8 8 9 10 10 11
32 31 29 28 26 25 24 23 21 19 18 16 14 12 10 9 7 6 4 4 3 2 1 1 0 1 2 2 3 3 4 5 6 6 7 8 9 10 10 11 11 11
32 30 28 27 25 24 23 21 20 18 16 15 13 11 9 7 6 4 3 3 2 1 0 1 1 2 2 3 3 4 5 6 7 8 9 9 10 11 11 11 11 11
31 29 28 26 24 23 21 20 18 17 15 13 11 9 7 6 4 3 2 2 1 1 2 2 2 2 3 3 4 4 6 8 9 10 10 11 12 12 12 12 12 12
30 28 27 25 23 22 21 19 18 16 14 12 10 8 6 5 3 2 2 2 2 3 3 2 2 3 3 3 4 4 5 7 8 9 9 10 11 12 11 10 9 10
29 28 26 24 22 21 20 18 17 15 13 11 9 7 6 4 3 2 3 3 3 3 2 2 3 3 3 3 4 4 5 6 6 7 7 7 7 8 9 9 9 9
28 27 26 24 22 21 19 18 16 14 12 10 8 6 5 4 3 3 4 4 4 3 3 3 4 4 4 4 4 5 5 5 6 7 7 8 9 10 12 14 14 13
28 26 26 24 22 21 19 17 15 13 11 9 7 5 4 4 4 5 5 5 4 4 4 4 5 5 5 5 5 5 5 5 7 10 11 12 14 15 16 18 17 16
28 27 26 25 23 21 19 17 15 12 10 8 6 5 5 5 6 6 6 5 5 5 5 5 6 6 6 6 6 6 6 7 8 11 14 15 16 17 18 18 18 17
29 28 27 25 23 21 18 16 14 11 9 7 6 6 6 7 7 7 6 6 6 6 6 5 6 7 7 7 7 7 7 7 10 13 15 16 18 18 18 19 19 19
29 28 27 25 22 20 18 15 12 10 8 7 7 8 9 8 8 7 7 6 6 7 7 6 6 6 8 8 7 7 7 8 11 12 14 16 18 19 19 20 20 20
28 27 25 23 21 19 16 14 11 9 8 8 9 10 10 9 8 7 7 6 6 7 8 8 7 7 8 8 8 8 8 9 11 11 13 17 19 20 20 20 21 21
26 24 23 21 20 17 15 12 10 9 9 10 11 10 9 9 8 7 6 7 8 8 9 9 9 8 9 9 8 8 8 9 10 10 12 16 18 19 19 19 20 21
24 22 21 19 18 15 13 11 10 11 11 11 11 10 9 8 7 7 8 8 9 9 10 10 11 10 9 9 9 8 8 9 10 11 12 15 17 17 17 18 18 18

ECMWFNIL_925_spd_336.txt.gz
Wind_Speed
18 20 21 23 23 24 25 25 25 24 24 23 23 23 22 20 20 20 20 20 21 21 21 21 21 21 21 21 20 21 21 21 20 18 17 18 18 18 18 17 15 14
18 20 22 23 24 24 24 25 25 25 25 25 24 24 22 21 21 21 22 23 23 23 22 22 22 22 22 22 21 22 22 21 20 18 17 17 16 17 18 17 14 11
20 21 23 24 25 25 26 26 26 26 26 26 25 24 24 23 23 23 23 23 23 23 22 22 22 22 22 22 22 22 21 20 19 17 16 16 15 16 16 15 13 11
19 21 23 24 26 27 28 28 27 27 27 26 26 25 25 24 24 25 24 24 24 23 22 21 21 21 22 21 21 21 21 20 18 15 15 15 14 15 14 12 11 10
19 21 22 24 26 27 28 28 28 28 28 28 27 26 25 25 26 26 26 25 25 24 23 22 22 22 22 21 21 21 20 19 17 14 14 15 14 13 13 11 10 10
19 20 22 24 25 27 27 28 29 29 29 28 28 27 26 26 26 27 27 27 26 25 24 23 23 23 22 21 20 20 18 17 16 13 13 14 13 12 11 10 9 9
19 20 22 23 24 25 26 27 28 29 29 29 29 28 27 27 27 27 27 27 26 25 23 22 22 22 20 19 19 18 17 16 14 13 13 13 12 11 10 9 8 8
20 21 22 23 24 25 25 27 28 29 30 31 31 29 28 27 27 27 26 26 25 24 23 22 21 21 19 18 18 17 16 15 13 12 12 11 10 10 9 7 7 6
21 22 23 24 25 26 26 28 29 30 30 31 31 30 28 28 28 27 26 25 25 23 22 21 20 20 19 18 17 16 15 13 12 10 10 10 9 8 7 6 6 5
22 23 24 25 26 27 28 29 30 30 30 30 31 30 30 29 28 28 26 25 24 23 21 21 20 19 18 17 15 14 12 12 10 9 9 8 8 7 6 5 5 4
22 24 26 27 28 29 30 31 31 31 31 31 31 31 30 30 28 27 26 24 23 22 21 20 19 18 17 16 14 12 11 11 10 9 8 7 7 6 5 4 4 3
23 24 26 28 29 31 32 32 32 32 32 32 32 31 30 29 27 26 25 24 22 21 20 19 18 17 16 15 13 12 11 10 9 9 8 7 6 5 5 4 3 3
22 24 26 28 30 31 32 32 33 33 33 32 31 31 30 28 27 25 24 23 22 20 19 18 17 16 15 14 12 11 10 9 9 8 7 6 6 5 4 3 3 3
22 24 27 29 30 31 32 32 33 33 32 32 31 30 29 27 26 25 23 22 21 19 18 17 16 15 14 13 12 11 10 9 9 8 7 6 5 4 3 2 2 2
23 25 27 29 31 32 33 33 33 32 31 31 30 29 28 26 25 23 22 21 20 19 17 16 15 15 14 12 11 11 10 9 8 7 6 5 4 3 2 1 0 1
25 27 29 30 32 33 33 33 33 33 31 30 29 27 26 25 23 22 21 20 19 18 17 16 15 14 13 12 10 9 9 8 7 6 5 5 4 3 2 1 1 1
27 29 31 32 33 33 33 33 32 32 31 29 27 26 25 23 22 21 19 19 18 17 17 16 15 14 12 11 10 9 8 7 6 5 4 3 3 3 2 1 0 1
29 31 33 33 34 34 33 32 32 30 29 28 27 25 23 22 20 19 18 17 17 17 16 15 14 13 12 10 9 8 7 6 5 4 3 2 1 1 0 0 1 3
31 33 34 33 33 33 33 32 31 29 27 26 25 24 22 21 19 18 17 17 16 16 15 15 13 12 11 10 8 7 6 5 4 4 3 2 2 2 3 3 4 5
32 34 34 33 32 32 31 29 28 27 25 24 23 22 20 20 18 17 17 16 15 15 14 13 12 11 10 9 8 7 6 5 5 4 3 3 4 4 5 5 6 6
33 35 34 33 31 29 28 27 26 25 24 22 21 20 19 18 18 17 16 15 14 13 13 13 12 11 10 9 8 8 7 5 4 4 3 4 4 4 5 6 6 7
35 36 34 32 31 28 26 26 25 24 23 21 20 18 17 17 16 15 15 15 14 13 12 12 12 11 10 9 8 7 6 5 4 4 4 4 4 5 6 7 7 8
34 35 35 32 30 27 26 25 25 24 22 20 19 18 16 16 15 14 14 13 13 12 11 11 11 10 9 8 7 6 5 5 5 4 4 5 6 6 8 8 9 9
34 34 34 31 28 27 27 26 24 23 21 19 18 17 16 15 14 14 13 12 12 11 10 10 10 9 8 7 6 6 5 5 5 5 5 6 7 8 9 10 10 11
33 31 30 28 26 26 26 25 23 22 20 17 16 15 15 14 13 12 12 11 11 10 9 9 8 8 7 7 6 6 5 4 5 6 6 7 7 9 10 11 11 12
30 29 27 26 26 25 25 24 23 21 18 16 15 14 13 13 12 11 11 10 10 10 9 8 7 7 6 6 5 5 5 5 6 7 7 8 9 10 11 12 13 13